TimeCST,TemperatureF,Dew PointF,Humidity,Sea Level PressureIn,VisibilityMPH,Wind Direction,Wind SpeedMPH,Gust SpeedMPH,PrecipitationIn,Events,Conditions,WindDirDegrees,DateUTC
10:35 AM,-9999,-9999,N/A,30.41,-9999.0,South,9.2,-,N/A,,Unknown,180,2012-11-28 16:35:00
10:55 AM,51.8,37.4,58,30.40,10.0,South,10.4,-,N/A,,Clear,180,2012-11-28 16:55:00
11:15 AM,53.6,37.4,54,30.39,10.0,SSE,9.2,-,N/A,,Clear,160,2012-11-28 17:15:00
11:35 AM,55.4,37.4,51,30.38,10.0,SSE,10.4,-,N/A,,Clear,160,2012-11-28 17:35:00
11:55 AM,55.4,37.4,51,30.37,10.0,South,8.1,-,N/A,,Clear,170,2012-11-28 17:55:00
12:15 PM,59.0,37.4,45,30.35,10.0,South,11.5,17.3,N/A,,Clear,170,2012-11-28 18:15:00
12:35 PM,59.0,37.4,45,30.35,10.0,South,10.4,-,N/A,,Clear,170,2012-11-28 18:35:00
12:55 PM,59.0,35.6,42,30.34,10.0,South,9.2,16.1,N/A,,Clear,170,2012-11-28 18:55:00
1:15 PM,-9999,-9999,N/A,30.33,-9999.0,SSE,9.2,-,N/A,,Unknown,160,2012-11-28 19:15:00
1:35 PM,60.8,37.4,42,30.31,10.0,SSE,11.5,16.1,N/A,,Clear,160,2012-11-28 19:35:00
1:55 PM,60.8,35.6,39,30.30,10.0,South,11.5,18.4,N/A,,Clear,180,2012-11-28 19:55:00
2:15 PM,62.6,35.6,37,30.28,10.0,South,9.2,-,N/A,,Clear,170,2012-11-28 20:15:00
2:35 PM,62.6,35.6,37,30.27,10.0,South,10.4,-,N/A,,Clear,180,2012-11-28 20:35:00
2:55 PM,64.4,35.6,34,30.26,10.0,South,10.4,16.1,N/A,,Clear,180,2012-11-28 20:55:00
3:15 PM,62.6,35.6,37,30.26,10.0,South,12.7,-,N/A,,Clear,170,2012-11-28 21:15:00
3:35 PM,62.6,33.8,34,30.25,10.0,South,11.5,-,N/A,,Clear,170,2012-11-28 21:35:00
3:55 PM,62.6,33.8,34,30.25,10.0,South,10.4,-,N/A,,Clear,180,2012-11-28 21:55:00
4:15 PM,62.6,35.6,37,30.25,10.0,South,9.2,-,N/A,,Clear,170,2012-11-28 22:15:00
4:35 PM,60.8,35.6,39,30.25,10.0,South,8.1,-,N/A,,Clear,180,2012-11-28 22:35:00
4:55 PM,60.8,33.8,36,30.25,10.0,South,6.9,-,N/A,,Clear,180,2012-11-28 22:55:00
5:15 PM,60.8,33.8,36,30.25,10.0,South,5.8,-,N/A,,Clear,190,2012-11-28 23:15:00
5:35 PM,59.0,33.8,39,30.25,10.0,South,4.6,-,N/A,,Clear,190,2012-11-28 23:35:00
5:55 PM,55.4,33.8,44,30.25,10.0,South,3.5,-,N/A,,Clear,180,2012-11-28 23:55:00
6:35 PM,53.6,35.6,51,30.26,10.0,South,4.6,-,N/A,,Clear,170,2012-11-29 00:35:00
6:55 PM,51.8,35.6,54,30.26,10.0,South,4.6,-,N/A,,Clear,170,2012-11-29 00:55:00
7:35 PM,53.6,35.6,51,30.26,10.0,South,8.1,-,N/A,,Clear,170,2012-11-29 01:35:00
7:55 PM,53.6,33.8,47,30.26,10.0,South,8.1,-,N/A,,Clear,170,2012-11-29 01:55:00
8:15 PM,53.6,33.8,47,30.26,10.0,South,6.9,-,N/A,,Clear,170,2012-11-29 02:15:00
8:35 PM,53.6,33.8,47,30.25,10.0,SSE,6.9,-,N/A,,Clear,160,2012-11-29 02:35:00
8:55 PM,51.8,33.8,50,30.25,10.0,SSE,6.9,-,N/A,,Clear,160,2012-11-29 02:55:00
9:15 PM,51.8,33.8,50,30.25,10.0,SSE,8.1,-,N/A,,Clear,160,2012-11-29 03:15:00
9:35 PM,51.8,33.8,50,30.25,10.0,South,6.9,-,N/A,,Clear,170,2012-11-29 03:35:00
9:55 PM,50.0,33.8,54,30.25,10.0,SSE,6.9,-,N/A,,Clear,160,2012-11-29 03:55:00
10:15 PM,50.0,33.8,54,30.25,10.0,SSE,6.9,-,N/A,,Clear,160,2012-11-29 04:15:00
10:35 PM,50.0,33.8,54,30.25,10.0,SSE,6.9,-,N/A,,Clear,160,2012-11-29 04:35:00
10:55 PM,50.0,33.8,54,30.25,10.0,South,6.9,-,N/A,,Clear,170,2012-11-29 04:55:00
11:15 PM,50.0,33.8,54,30.24,10.0,South,5.8,-,N/A,,Clear,170,2012-11-29 05:15:00
11:35 PM,48.2,33.8,58,30.24,10.0,SSE,5.8,-,N/A,,Clear,160,2012-11-29 05:35:00
11:55 PM,46.4,33.8,62,30.24,10.0,SSE,4.6,-,N/A,,Clear,150,2012-11-29 05:55:00